W6HN Weather Reports


Display with metric or nautical units.
time (UTC)temp
F
wind
direction
speed
MPH
gust
MPH
rain 1hr
in
rain 24hr
in
rain mn
in
humidity
%
barometer
mb
20170727063842 58 145 2.0 0.0 0.00 0.00 0.00 83 1011.6
20170727063329 58 145 2.0 0.0 0.00 0.00 0.00 82 1011.6
20170727062838 59 146 2.0 0.0 0.00 0.00 0.00 82 1011.6
20170727062327 59 146 2.0 0.0 0.00 0.00 0.00 82 1011.6
20170727061833 59 146 2.0 0.0 0.00 0.00 0.00 81 1011.6
20170727061341 59 146 1.0 0.0 0.00 0.00 0.00 81 1011.8
20170727060830 59 146 2.0 0.0 0.00 0.00 0.00 81 1011.8
20170727060341 59 145 2.0 0.0 0.00 0.00 0.00 80 1011.8
20170727055827 60 145 3.0 0.0 0.00 0.00 0.00 80 1011.6
20170727055339 60 144 3.0 0.0 0.00 0.00 0.00 79 1011.6
20170727054831 60 144 4.0 0.0 0.00 0.00 0.00 78 1011.6
20170727054338 60 146 3.0 0.0 0.00 0.00 0.00 78 1011.7
20170727053847 61 148 3.0 0.0 0.00 0.00 0.00 77 1011.7
20170727053339 61 144 3.0 0.0 0.00 0.00 0.00 76 1011.7
20170727052827 61 142 2.0 0.0 0.00 0.00 0.00 76 1011.6
20170727052332 61 139 2.0 0.0 0.00 0.00 0.00 76 1011.6
20170727051841 61 139 2.0 0.0 0.00 0.00 0.00 75 1011.6
20170727051330 62 138 3.0 0.0 0.00 0.00 0.00 75 1011.6
20170727050846 62 139 3.0 0.0 0.00 0.00 0.00 74 1011.6
20170727050330 62 137 3.0 0.0 0.00 0.00 0.00 74 1011.6
20170727045839 62 150 3.0 0.0 0.00 0.00 0.00 73 1011.5
20170727045347 63 150 3.0 0.0 0.00 0.00 0.00 73 1011.5
20170727044834 63 150 3.0 0.0 0.00 0.00 0.00 72 1011.5
20170727044327 63 151 4.0 0.0 0.00 0.00 0.00 71 1011.4
20170727043839 64 156 4.0 0.0 0.00 0.00 0.00 71 1011.4
20170727043326 64 164 4.0 0.0 0.00 0.00 0.00 70 1011.4
20170727042835 64 127 4.0 0.0 0.00 0.00 0.00 70 1011.4
20170727042343 65 122 4.0 0.0 0.00 0.00 0.00 69 1011.4
20170727041835 65 148 4.0 0.0 0.00 0.00 0.00 68 1011.4
20170727041327 65 157 4.0 0.0 0.00 0.00 0.00 67 1011.2
20170727040833 66 149 5.0 0.0 0.00 0.00 0.00 66 1011.2
20170727040346 67 157 4.0 0.0 0.00 0.00 0.00 65 1011.2
20170727035833 67 157 3.0 0.0 0.00 0.00 0.00 64 1011.1
20170727035340 68 153 4.0 0.0 0.00 0.00 0.00 62 1011.1
20170727034828 68 149 4.0 0.0 0.00 0.00 0.00 61 1011.1
20170727034338 69 157 4.0 0.0 0.00 0.00 0.00 59 1011.0
20170727033827 69 168 4.0 0.0 0.00 0.00 0.00 59 1011.0
20170727033332 70 142 3.0 0.0 0.00 0.00 0.00 58 1011.0
20170727032842 70 107 1.0 0.0 0.00 0.00 0.00 56 1011.0
20170727032331 70 106 1.0 0.0 0.00 0.00 0.00 56 1011.0
20170727031828 71 106 1.0 0.0 0.00 0.00 0.00 56 1011.0
20170727031337 71 106 1.0 0.0 0.00 0.00 0.00 56 1011.0
20170727030846 71 107 1.0 0.0 0.00 0.00 0.00 56 1011.0
20170727030336 71 107 3.0 0.0 0.00 0.00 0.00 55 1011.0
20170727025841 72 111 3.0 0.0 0.00 0.00 0.00 55 1010.9
20170727025334 72 112 4.0 0.0 0.00 0.00 0.00 55 1010.9
20170727024845 73 107 3.0 0.0 0.00 0.00 0.00 54 1010.9
20170727024336 73 107 4.0 0.0 0.00 0.00 0.00 53 1010.7
20170727023840 73 103 4.0 0.0 0.00 0.00 0.00 52 1010.7
20170727023327 74 88 3.0 0.0 0.00 0.00 0.00 51 1010.7
20170727022841 74 111 3.0 0.0 0.00 0.00 0.00 51 1010.5
20170727022329 74 133 5.0 0.0 0.00 0.00 0.00 51 1010.5
20170727021839 75 91 5.0 0.0 0.00 0.00 0.00 50 1010.5
20170727021328 75 109 6.0 0.0 0.00 0.00 0.00 49 1010.4
20170727020840 76 130 5.0 0.0 0.00 0.00 0.00 49 1010.4
20170727020330 76 110 4.0 0.0 0.00 0.00 0.00 48 1010.4
20170727015838 77 103 5.0 0.0 0.00 0.00 0.00 47 1010.4
20170727015327 77 100 5.0 0.0 0.00 0.00 0.00 46 1010.4
20170727014835 78 111 5.0 0.0 0.00 0.00 0.00 46 1010.4
20170727014345 78 88 6.0 0.0 0.00 0.00 0.00 46 1010.3
20170727013834 79 78 7.0 0.0 0.00 0.00 0.00 44 1010.3
20170727013344 79 107 6.0 0.0 0.00 0.00 0.00 43 1010.3
20170727012832 80 114 6.0 0.0 0.00 0.00 0.00 42 1010.3
20170727012336 80 117 7.0 0.0 0.00 0.00 0.00 40 1010.3
20170727011845 81 95 7.0 0.0 0.00 0.00 0.00 39 1010.3
20170727011334 81 104 8.0 0.0 0.00 0.00 0.00 39 1010.2
20170727010839 81 123 7.0 0.0 0.00 0.00 0.00 38 1010.2
20170727010328 82 158 8.0 0.0 0.00 0.00 0.00 38 1010.2
20170727005840 82 94 8.0 0.0 0.00 0.00 0.00 37 1010.1
20170727005329 82 135 7.0 0.0 0.00 0.00 0.00 36 1010.1
20170727004838 83 115 7.0 0.0 0.00 0.00 0.00 35 1010.1
20170727004327 83 105 8.0 0.0 0.00 0.00 0.00 35 1010.1
20170727003836 84 103 8.0 0.0 0.00 0.00 0.00 34 1010.1
20170727003345 84 89 7.0 0.0 0.00 0.00 0.00 34 1010.1
20170727002828 84 88 8.0 0.0 0.00 0.00 0.00 33 1010.2
20170727002337 84 112 7.0 0.0 0.00 0.00 0.00 33 1010.2
20170727001847 85 143 7.0 0.0 0.00 0.00 0.00 34 1010.2
20170727001333 86 85 7.0 0.0 0.00 0.00 0.00 34 1010.3
20170727000845 86 131 7.0 0.0 0.00 0.00 0.00 33 1010.3
20170727000339 86 93 8.0 0.0 0.00 0.00 0.00 33 1010.3
20170726235846 87 150 8.0 0.0 0.00 0.00 0.00 33 1010.4
20170726235331 87 87 8.0 0.0 0.00 0.00 0.00 33 1010.4
20170726234844 87 94 7.0 0.0 0.00 0.00 0.00 33 1010.4
20170726234332 88 132 6.0 0.0 0.00 0.00 0.00 33 1010.5
20170726233841 88 103 6.0 0.0 0.00 0.00 0.00 32 1010.5
20170726233347 88 136 5.0 0.0 0.00 0.00 0.00 34 1010.5
20170726232836 88 94 3.0 0.0 0.00 0.00 0.00 34 1010.5
20170726232328 88 96 4.0 0.0 0.00 0.00 0.00 34 1010.5
20170726231833 88 136 4.0 0.0 0.00 0.00 0.00 34 1010.5
20170726231344 88 133 5.0 0.0 0.00 0.00 0.00 36 1010.5
20170726230835 88 101 5.0 0.0 0.00 0.00 0.00 37 1010.5
20170726230327 88 109 4.0 0.0 0.00 0.00 0.00 38 1010.5
20170726225839 87 138 4.0 0.0 0.00 0.00 0.00 38 1010.8
20170726225327 87 104 5.0 0.0 0.00 0.00 0.00 38 1010.8
20170726224837 88 101 5.0 0.0 0.00 0.00 0.00 37 1010.8
20170726224329 88 120 3.0 0.0 0.00 0.00 0.00 37 1010.9
20170726223835 89 98 2.0 0.0 0.00 0.00 0.00 34 1010.9
20170726223345 89 108 2.0 0.0 0.00 0.00 0.00 35 1010.9
20170726222833 89 148 2.0 0.0 0.00 0.00 0.00 35 1011.0
20170726222338 88 160 4.0 0.0 0.00 0.00 0.00 36 1011.0
20170726221846 88 90 4.0 0.0 0.00 0.00 0.00 33 1011.0
20170726221334 89 100 3.0 0.0 0.00 0.00 0.00 33 1011.2
20170726220843 90 123 3.0 0.0 0.00 0.00 0.00 33 1011.2
20170726220327 89 160 2.0 0.0 0.00 0.00 0.00 33 1011.2
20170726215843 89 111 3.0 0.0 0.00 0.00 0.00 33 1011.5
20170726215335 88 144 2.0 0.0 0.00 0.00 0.00 34 1011.5
20170726214846 87 103 3.0 0.0 0.00 0.00 0.00 35 1011.4
20170726214334 87 115 3.0 0.0 0.00 0.00 0.00 33 1011.5
20170726213845 87 141 2.0 0.0 0.00 0.00 0.00 35 1011.5
20170726213338 87 109 3.0 0.0 0.00 0.00 0.00 34 1011.5
20170726212844 87 134 3.0 0.0 0.00 0.00 0.00 36 1011.6
20170726212332 86 109 2.0 0.0 0.00 0.00 0.00 35 1011.6
20170726211845 86 94 2.0 0.0 0.00 0.00 0.00 38 1011.6
20170726211333 86 95 4.0 0.0 0.00 0.00 0.00 37 1012.0
20170726210838 86 96 3.0 0.0 0.00 0.00 0.00 38 1012.0
20170726210327 85 124 3.0 0.0 0.00 0.00 0.00 38 1012.0
20170726205844 84 182 3.0 0.0 0.00 0.00 0.00 40 1012.1
20170726205332 83 113 3.0 0.0 0.00 0.00 0.00 41 1012.1
20170726204839 83 110 4.0 0.0 0.00 0.00 0.00 42 1012.0
20170726204327 83 105 4.0 0.0 0.00 0.00 0.00 41 1012.2
20170726201838 82 165 3.0 0.0 0.00 0.00 0.00 44 1012.5
20170726201342 81 168 3.0 0.0 0.00 0.00 0.00 46 1012.6
20170726200832 80 103 3.0 0.0 0.00 0.00 0.00 45 1012.6
20170726200344 80 112 3.0 0.0 0.00 0.00 0.00 46 1012.6
20170726195337 79 166 3.0 0.0 0.00 0.00 0.00 49 1012.8
20170726194826 78 173 4.0 0.0 0.00 0.00 0.00 50 1012.8
20170726194345 77 108 5.0 0.0 0.00 0.00 0.00 51 1012.8
20170726193835 77 101 3.0 0.0 0.00 0.00 0.00 51 1012.8
20170726193341 77 132 3.0 0.0 0.00 0.00 0.00 52 1012.8
20170726192829 76 105 3.0 0.0 0.00 0.00 0.00 52 1013.0
20170726192339 76 113 3.0 0.0 0.00 0.00 0.00 52 1013.0
20170726191846 76 111 4.0 0.0 0.00 0.00 0.00 52 1013.0
20170726191336 76 98 3.0 0.0 0.00 0.00 0.00 52 1013.0
20170726190826 75 109 3.0 0.0 0.00 0.00 0.00 53 1013.0
20170726190340 74 140 2.0 0.0 0.00 0.00 0.00 56 1013.0
20170726185842 74 118 2.0 0.0 0.00 0.00 0.00 55 1013.0
20170726185332 74 119 3.0 0.0 0.00 0.00 0.00 56 1013.0
20170726184842 74 131 2.0 0.0 0.00 0.00 0.00 56 1013.0
20170726184332 73 142 1.0 0.0 0.00 0.00 0.00 57 1013.2
20170726183837 72 144 1.0 0.0 0.00 0.00 0.00 60 1013.2
20170726183346 72 144 1.0 0.0 0.00 0.00 0.00 59 1013.2
20170726182834 72 144 1.0 0.0 0.00 0.00 0.00 60 1013.4
20170726182340 72 144 1.0 0.0 0.00 0.00 0.00 61 1013.4
20170726181828 71 144 1.0 0.0 0.00 0.00 0.00 61 1013.4
20170726181344 71 143 1.0 0.0 0.00 0.00 0.00 62 1013.5
20170726180833 70 144 0.0 0.0 0.00 0.00 0.00 64 1013.5
20170726180339 69 144 0.0 0.0 0.00 0.00 0.00 66 1013.5
20170726175845 68 144 1.0 0.0 0.00 0.00 0.00 68 1013.6
20170726175334 67 143 1.0 0.0 0.00 0.00 0.00 68 1013.6
20170726174838 67 144 1.0 0.0 0.00 0.00 0.00 69 1013.6
20170726174327 66 142 2.0 0.0 0.00 0.00 0.00 71 1013.7
20170726173843 65 142 2.0 0.0 0.00 0.00 0.00 71 1013.7
20170726173337 65 142 2.0 0.0 0.00 0.00 0.00 72 1013.7
20170726172844 65 142 3.0 0.0 0.00 0.00 0.00 74 1013.8
20170726172337 64 133 2.0 0.0 0.00 0.00 0.00 75 1013.8
20170726171826 63 135 2.0 0.0 0.00 0.00 0.00 77 1013.8
20170726171340 63 144 2.0 0.0 0.00 0.00 0.00 78 1013.8
20170726170846 62 134 3.0 0.0 0.00 0.00 0.00 79 1013.8
20170726170336 62 135 3.0 0.0 0.00 0.00 0.00 80 1013.8
20170726165847 62 134 2.0 0.0 0.00 0.00 0.00 81 1014.0
20170726165336 61 126 1.0 0.0 0.00 0.00 0.00 82 1014.0
20170726164826 60 98 1.0 0.0 0.00 0.00 0.00 84 1014.0
20170726164342 60 98 1.0 0.0 0.00 0.00 0.00 84 1014.1
20170726163831 59 97 1.0 0.0 0.00 0.00 0.00 85 1014.1
20170726163336 59 96 0.0 0.0 0.00 0.00 0.00 84 1014.1
20170726162846 59 96 0.0 0.0 0.00 0.00 0.00 85 1014.1
20170726162335 59 96 0.0 0.0 0.00 0.00 0.00 85 1014.1
20170726161830 59 96 1.0 0.0 0.00 0.00 0.00 86 1014.1
20170726161338 59 96 1.0 0.0 0.00 0.00 0.00 87 1014.0
20170726160847 58 96 1.0 0.0 0.00 0.00 0.00 88 1014.0
20170726160337 58 96 1.0 0.0 0.00 0.00 0.00 88 1014.0
20170726155827 58 96 0.0 0.0 0.00 0.00 0.00 88 1014.0
20170726155333 58 96 0.0 0.0 0.00 0.00 0.00 88 1014.0
20170726154825 58 96 1.0 0.0 0.00 0.00 0.00 89 1014.0
20170726154338 58 96 1.0 0.0 0.00 0.00 0.00 89 1013.7
20170726153831 57 96 1.0 0.0 0.00 0.00 0.00 89 1013.7
20170726153336 57 96 0.0 0.0 0.00 0.00 0.00 90 1013.7
20170726152845 57 96 0.0 0.0 0.00 0.00 0.00 90 1013.6
20170726152335 57 96 0.0 0.0 0.00 0.00 0.00 90 1013.6
20170726151841 57 96 0.0 0.0 0.00 0.00 0.00 90 1013.6
20170726151331 57 96 0.0 0.0 0.00 0.00 0.00 90 1013.5
20170726150844 57 96 0.0 0.0 0.00 0.00 0.00 90 1013.5
20170726150336 57 96 0.0 0.0 0.00 0.00 0.00 90 1013.5
20170726145843 57 96 0.0 0.0 0.00 0.00 0.00 91 1013.6
20170726145336 57 96 0.0 0.0 0.00 0.00 0.00 91 1013.6
20170726144826 57 96 0.0 0.0 0.00 0.00 0.00 91 1013.6
20170726144339 56 96 0.0 0.0 0.00 0.00 0.00 91 1013.3
20170726143844 56 96 0.0 0.0 0.00 0.00 0.00 91 1013.3
20170726143333 57 96 0.0 0.0 0.00 0.00 0.00 91 1013.3
20170726142841 57 96 0.0 0.0 0.00 0.00 0.00 91 1013.1
20170726142346 57 96 0.0 0.0 0.00 0.00 0.00 91 1013.1
20170726141834 57 96 0.0 0.0 0.00 0.00 0.00 91 1013.1
20170726141343 57 96 0.0 0.0 0.00 0.00 0.00 91 1013.0
20170726140832 56 96 0.0 0.0 0.00 0.00 0.00 91 1013.0
20170726140338 56 96 0.0 0.0 0.00 0.00 0.00 91 1013.0
20170726135845 56 96 0.0 0.0 0.00 0.00 0.00 91 1013.0
20170726135335 56 96 0.0 0.0 0.00 0.00 0.00 91 1013.0
20170726134840 56 96 0.0 0.0 0.00 0.00 0.00 91 1013.0
20170726134331 56 96 0.0 0.0 0.00 0.00 0.00 91 1013.0
20170726133840 56 96 1.0 0.0 0.00 0.00 0.00 91 1013.0
20170726133329 56 96 0.0 0.0 0.00 0.00 0.00 91 1013.0
20170726132836 56 96 0.0 0.0 0.00 0.00 0.00 91 1012.9
20170726132345 56 96 0.0 0.0 0.00 0.00 0.00 91 1012.9
20170726131838 56 96 0.0 0.0 0.00 0.00 0.00 92 1012.9
20170726131327 56 96 0.0 0.0 0.00 0.00 0.00 92 1012.7
20170726130836 56 96 0.0 0.0 0.00 0.00 0.00 92 1012.7
20170726130346 56 96 0.0 0.0 0.00 0.00 0.00 92 1012.7
20170726125829 56 96 0.0 0.0 0.00 0.00 0.00 92 1012.7
20170726125338 56 96 0.0 0.0 0.00 0.00 0.00 91 1012.7
20170726124828 56 96 0.0 0.0 0.00 0.00 0.00 91 1012.7
20170726124341 56 96 0.0 0.0 0.00 0.00 0.00 91 1012.6
20170726123832 56 96 0.0 0.0 0.00 0.00 0.00 91 1012.6
20170726123336 56 96 0.0 0.0 0.00 0.00 0.00 90 1012.6
20170726122829 57 96 0.0 0.0 0.00 0.00 0.00 90 1012.5
20170726122338 57 96 0.0 0.0 0.00 0.00 0.00 90 1012.5
20170726121827 57 96 0.0 0.0 0.00 0.00 0.00 90 1012.5
20170726121332 57 96 0.0 0.0 0.00 0.00 0.00 90 1012.4
20170726120841 57 96 0.0 0.0 0.00 0.00 0.00 90 1012.4
20170726120329 57 96 0.0 0.0 0.00 0.00 0.00 90 1012.4
20170726115833 57 96 0.0 0.0 0.00 0.00 0.00 90 1012.2
20170726115343 57 96 0.0 0.0 0.00 0.00 0.00 90 1012.2
20170726114836 57 96 0.0 0.0 0.00 0.00 0.00 90 1012.2
20170726114344 57 96 0.0 0.0 0.00 0.00 0.00 90 1012.2
20170726113831 57 96 0.0 0.0 0.00 0.00 0.00 90 1012.2
20170726113339 57 96 0.0 0.0 0.00 0.00 0.00 90 1012.2
20170726112827 57 96 0.0 0.0 0.00 0.00 0.00 90 1012.1
20170726112332 57 96 0.0 0.0 0.00 0.00 0.00 90 1012.1
20170726111842 57 96 0.0 0.0 0.00 0.00 0.00 90 1012.1
20170726111331 57 96 0.0 0.0 0.00 0.00 0.00 90 1012.3
20170726110844 57 96 0.0 0.0 0.00 0.00 0.00 90 1012.3
20170726110347 57 96 0.0 0.0 0.00 0.00 0.00 90 1012.3
20170726105839 57 96 0.0 0.0 0.00 0.00 0.00 90 1012.2
20170726105327 57 96 0.0 0.0 0.00 0.00 0.00 90 1012.2
20170726104836 57 96 0.0 0.0 0.00 0.00 0.00 90 1012.2
20170726104340 57 96 0.0 0.0 0.00 0.00 0.00 91 1012.5
20170726103829 57 96 0.0 0.0 0.00 0.00 0.00 91 1012.5
20170726103345 57 96 0.0 0.0 0.00 0.00 0.00 91 1012.5
20170726102829 57 96 0.0 0.0 0.00 0.00 0.00 91 1012.5
20170726102338 57 96 0.0 0.0 0.00 0.00 0.00 91 1012.5
20170726101828 57 96 0.0 0.0 0.00 0.00 0.00 91 1012.5
20170726101346 57 96 0.0 0.0 0.00 0.00 0.00 91 1012.6
20170726100833 56 96 0.0 0.0 0.00 0.00 0.00 91 1012.6
20170726100342 56 96 0.0 0.0 0.00 0.00 0.00 91 1012.6
20170726095830 56 96 0.0 0.0 0.00 0.00 0.00 91 1012.5
20170726095342 56 96 0.0 0.0 0.00 0.00 0.00 91 1012.5
20170726094827 56 96 0.0 0.0 0.00 0.00 0.00 91 1012.5
20170726094335 56 96 0.0 0.0 0.00 0.00 0.00 91 1012.5
20170726093845 56 96 0.0 0.0 0.00 0.00 0.00 92 1012.5
20170726093328 56 96 0.0 0.0 0.00 0.00 0.00 92 1012.5
20170726092840 56 96 0.0 0.0 0.00 0.00 0.00 92 1012.5
20170726092329 56 96 0.0 0.0 0.00 0.00 0.00 91 1012.5
20170726091844 56 96 0.0 0.0 0.00 0.00 0.00 91 1012.5
20170726091327 56 96 0.0 0.0 0.00 0.00 0.00 91 1012.5
20170726090840 56 96 0.0 0.0 0.00 0.00 0.00 91 1012.5
20170726090329 56 96 0.0 0.0 0.00 0.00 0.00 90 1012.5
20170726085842 56 96 0.0 0.0 0.00 0.00 0.00 90 1012.5
20170726085328 56 96 0.0 0.0 0.00 0.00 0.00 89 1012.5
20170726084844 56 96 0.0 0.0 0.00 0.00 0.00 89 1012.5
20170726084333 56 96 0.0 0.0 0.00 0.00 0.00 89 1012.5
20170726083838 56 96 0.0 0.0 0.00 0.00 0.00 89 1012.5
20170726083347 56 96 0.0 0.0 0.00 0.00 0.00 89 1012.5
20170726082835 56 96 0.0 0.0 0.00 0.00 0.00 89 1012.5
20170726082329 56 96 0.0 0.0 0.00 0.00 0.00 89 1012.5
20170726081837 56 96 0.0 0.0 0.00 0.00 0.00 88 1012.5
20170726081327 57 96 0.0 0.0 0.00 0.00 0.00 88 1012.5
20170726080840 57 96 0.0 0.0 0.00 0.00 0.00 87 1012.5
20170726080329 57 96 0.0 0.0 0.00 0.00 0.00 87 1012.5
20170726075835 57 96 0.0 0.0 0.00 0.00 0.00 87 1012.5
20170726075345 57 96 0.0 0.0 0.00 0.00 0.00 87 1012.5
20170726074836 57 96 0.0 0.0 0.00 0.00 0.00 87 1012.5
20170726074340 57 96 0.0 0.0 0.00 0.00 0.00 87 1012.5
20170726073829 57 96 0.0 0.0 0.00 0.00 0.00 87 1012.5
20170726073338 57 96 0.0 0.0 0.00 0.00 0.00 86 1012.5
20170726072846 57 96 0.0 0.0 0.00 0.00 0.00 86 1012.4
20170726072331 58 96 0.0 0.0 0.00 0.00 0.00 86 1012.4
20170726071845 58 96 0.0 0.0 0.00 0.00 0.00 86 1012.4
20170726071332 58 96 0.0 0.0 0.00 0.00 0.00 85 1012.3
20170726070843 58 96 0.0 0.0 0.00 0.00 0.00 86 1012.3
20170726070341 58 96 0.0 0.0 0.00 0.00 0.00 86 1012.3
20170726065827 58 96 0.0 0.0 0.00 0.00 0.00 85 1012.3
20170726065335 58 96 0.0 0.0 0.00 0.00 0.00 85 1012.3
20170726064841 58 96 0.0 0.0 0.00 0.00 0.00 85 1012.3
20170726064330 58 96 1.0 0.0 0.00 0.00 0.00 84 1012.1